Location: Bremen
(53.0793°N, 8.8017°E)
Time: 21:38:51
(UTC+02:00)

Vanguard 2 Rocket - Pass Details

Date: 20 April 2024
Orbit: 556 x 3304 km, 32.9° (Epoch: 20 May)

Event Time Altitude Azimuth Distance (km) Brightness Sun altitude
Rises 05:17:57 0° 272° (W) 7,269 11.0 -8.3°
Reaches altitude 10° 05:25:51 10° 256° (WSW) 6,032 10.5 -7.3°
Maximum altitude 05:34:55 16° 226° (SW) 5,025 10.1 -6.2°
Drops below altitude 10° 05:42:35 10° 194° (SSW) 4,931 10.3 -5.1°
Sets 05:47:58 0° 175° (S) 5,405 10.6 -4.4°
